STARLINK-5790 (56036 NORAD) Tracking and Keplerian Element Data

This shows tracking and keplerian element data for the satellite.

Feedback or suggestion? Click here.




ElementValue
Catalog56036
NameSTARLINK-5790
Epoch Orbit719
Epoch Day127.16667824
Epoch Year2023
RAAN292.1788
Inclination42.9995
Eccentricity0.0001431
Argument of Perigee274.6107
Mean Anonmoly175.6607
Mean Motion15.54718869
Decay Rate-0.00926805
L11 56036U 23042BC 23127.16667824 -.00926805 00000+0 -15008-1 0 9992
L22 56036 42.9995 292.1788 0001431 274.6107 175.6607 15.54718869 7196



Live tracking and technical data element details for STARLINK-5790 (NORAD 56036). STARLINK-5790 can be tracked NOW for your location showing map with azimuth and elevation plus other details from your city location.







IsCatalogInMostPopularTable: catalog: 56036, numindb: 1
Update: records affected: 1



GetName: 56036 STARLINK-5790

Hit Count: updated at: Sat, 03 Jun 2023 17:49:02 GMT